Location: *
(33.6842°N, 117.7925°W)
Time: 19:18:33
(UTC+00:00)

Cosmos 2369 Rocket - Pass Details

Date: 21 October 2019
Orbit: 830 x 851 km, 71.0° (Epoch: 12 November)

Event Time Altitude Azimuth Distance (km) Brightness Sun altitude
Rises 13:10:39 0° 349° (N) 3,378 5.2 -11.1°
Reaches altitude 10° 13:13:21 10° 360° (N) 2,440 4.5 -10.6°
Maximum altitude 13:18:19 32° 63° (ENE) 1,394 4.0 -9.5°
Drops below altitude 10° 13:23:15 10° 125° (SE) 2,431 5.7 -8.5°
Sets 13:25:56 0° 135° (SE) 3,363 6.3 -8.0°
